TimeCDT,TemperatureF,Dew PointF,Humidity,Sea Level PressureIn,VisibilityMPH,Wind Direction,Wind SpeedMPH,Gust SpeedMPH,PrecipitationIn,Events,Conditions,WindDirDegrees,DateUTC
12:20 AM,89.6,62.6,40,29.92,8.0,NW,9.2,-,N/A,Rain,Light Rain,320,2013-09-02 05:20:00
12:41 AM,82.4,68.0,62,29.93,10.0,East,3.5,-,N/A,,Overcast,90,2013-09-02 05:41:00
12:58 AM,83.1,67.5,59,29.78,10.0,South,2.3,-,0.05,,Overcast,180,2013-09-02 05:58:00
1:58 AM,80.4,68.2,66,29.75,10.0,WSW,10.4,-,N/A,,Scattered Clouds,240,2013-09-02 06:58:00
2:58 AM,79.2,67.5,67,29.75,10.0,SW,6.9,-,N/A,,Overcast,220,2013-09-02 07:58:00
3:58 AM,79.2,67.3,67,29.75,10.0,WSW,3.5,-,N/A,,Overcast,240,2013-09-02 08:58:00
4:58 AM,80.2,65.1,60,29.75,10.0,West,4.6,-,N/A,,Clear,280,2013-09-02 09:58:00
5:58 AM,79.2,65.8,64,29.80,10.0,Calm,Calm,-,N/A,,Mostly Cloudy,0,2013-09-02 10:58:00
6:58 AM,75.7,66.7,74,29.82,10.0,South,10.4,-,N/A,,Partly Cloudy,180,2013-09-02 11:58:00
7:58 AM,74.7,66.6,76,29.85,10.0,SW,13.8,-,N/A,,Clear,220,2013-09-02 12:58:00
8:58 AM,75.0,66.2,74,29.89,10.0,South,11.5,-,N/A,,Scattered Clouds,170,2013-09-02 13:58:00
9:58 AM,78.3,64.9,63,29.93,10.0,South,12.7,-,N/A,,Clear,170,2013-09-02 14:58:00
10:58 AM,82.4,64.6,55,29.93,10.0,SSE,15.0,-,N/A,,Scattered Clouds,160,2013-09-02 15:58:00
11:58 AM,86.9,63.1,45,29.91,10.0,South,12.7,-,N/A,,Clear,180,2013-09-02 16:58:00
12:58 PM,90.3,61.9,38,29.90,10.0,South,10.4,20.7,N/A,,Partly Cloudy,190,2013-09-02 17:58:00
1:04 PM,89.6,62.6,40,30.04,10.0,South,13.8,20.7,N/A,,Scattered Clouds,180,2013-09-02 18:04:00
1:58 PM,89.1,61.5,40,29.88,10.0,SSW,11.5,-,N/A,,Mostly Cloudy,200,2013-09-02 18:58:00
2:58 PM,90.7,62.4,39,29.85,10.0,WSW,10.4,-,N/A,,Clear,240,2013-09-02 19:58:00
3:58 PM,91.8,61.9,37,29.82,10.0,Variable,1.2,-,N/A,,Mostly Cloudy,0,2013-09-02 20:58:00
4:58 PM,92.5,61.2,35,29.78,10.0,SSW,1.2,-,N/A,,Clear,210,2013-09-02 21:58:00
5:58 PM,91.6,61.5,37,29.78,10.0,ENE,2.3,-,N/A,,Clear,60,2013-09-02 22:58:00
6:58 PM,92.8,61.0,34,29.77,10.0,ESE,8.1,-,N/A,,Clear,110,2013-09-02 23:58:00
7:58 PM,89.6,61.0,38,29.79,10.0,SSE,8.1,-,N/A,,Partly Cloudy,150,2013-09-03 00:58:00
8:58 PM,85.5,64.0,49,29.83,10.0,SSE,10.4,-,N/A,,Clear,160,2013-09-03 01:58:00
9:58 PM,82.6,64.8,55,29.86,10.0,SSE,10.4,-,N/A,,Clear,160,2013-09-03 02:58:00
10:58 PM,79.5,64.6,60,29.87,10.0,SSE,8.1,-,N/A,,Partly Cloudy,160,2013-09-03 03:58:00
11:58 PM,76.8,64.4,65,29.86,10.0,South,4.6,-,N/A,,Clear,180,2013-09-03 04:58:00